Starlink 1302

operational
NORAD ID: 45375 Int'l Des: 2020-019 Owner: SPXS Country: US Constellation: starlink
LEOCIRCULARSTARLINK_TYPE

关于 Starlink 1302

正在加载描述...

实时位置

正在加载3D地球...

即将过境

高度历史

Altitude vs Time

uPlot chart will show altitude changes over time

两行轨道根数

1 45375U 20019R 25257.95752101 .00000410 00000-0 46410-4 0 9991
2 45375 53.0543 235.5132 0001321 78.6838 281.4300 15.06395882303241
Epoch: Sep 14, 2025 • Age: 17 hours

当前状态

高度 549.5 km
速度 7.59 km/s
星下点 36.49°N, 151.67°E
发射日期 Mar 18, 2020
运行时间 5.4 years
类型 internet

技术详情

分类 Payload
质量 260.00 kg
干质量 248.00 kg
总质量 260.00 kg
长度 0.20 m
直径 2.80 m
跨度 9.00 m
形状 Box + pan
制造商 SPXS
平台类型 Starlink
阶段状态 In Orbit
所有者/国家 SPXS/US

大型星座

Loading constellations...